Starlink 32868

operational
NORAD ID: 62854 Int'l Des: 2025-022 Owner: SPXS Country: US Constellation: starlink
LEOCIRCULAR

Starlink 32868について

説明を読み込み中...

リアルタイム位置

3D地球を読み込み中...

次回通過

高度履歴

Altitude vs Time

uPlot chart will show altitude changes over time

軌道要素

1 62854U 25022A 25308.53776162 .00050433 00000-0 17034-2 0 9993
2 62854 53.1596 350.5899 0001285 76.2301 283.8843 15.30199674 43558
Epoch: Nov 4, 2025 • Age: 8 hours

現在のステータス

高度 479.2 km
速度 7.63 km/s
衛星直下点 45.40°N, 116.72°E
打ち上げ日 Feb 2, 2025
運用期間 0.7 years
タイプ internet

技術仕様

分類 Payload
質量 730.00 kg
乾燥質量 700.00 kg
総質量 730.00 kg
長さ 0.30 m
直径 4.10 m
スパン 29.00 m
形状 Box + pan
製造者 SPXS
バスタイプ Starlink V2M
フェーズステータス In Orbit
所有者/国 SPXS/US

大規模コンステレーション

Loading constellations...